TimeEDT,TemperatureF,Dew PointF,Humidity,Sea Level PressureIn,VisibilityMPH,Wind Direction,Wind SpeedMPH,Gust SpeedMPH,PrecipitationIn,Events,Conditions,WindDirDegrees,DateUTC
12:53 AM,66.0,61.0,84,29.90,10.0,WSW,5.8,-,N/A,,Clear,240,2013-06-17 04:53:00
1:53 AM,64.0,61.0,90,29.90,10.0,Calm,Calm,-,N/A,,Partly Cloudy,0,2013-06-17 05:53:00
2:53 AM,63.0,60.1,90,29.91,8.0,Calm,Calm,-,N/A,,Clear,0,2013-06-17 06:53:00
3:53 AM,62.1,57.9,86,29.91,10.0,West,3.5,-,N/A,,Clear,260,2013-06-17 07:53:00
4:53 AM,61.0,57.0,87,29.91,10.0,Calm,Calm,-,N/A,,Clear,0,2013-06-17 08:53:00
5:53 AM,60.1,55.9,86,29.91,10.0,Calm,Calm,-,N/A,,Clear,0,2013-06-17 09:53:00
6:53 AM,62.1,57.0,84,29.94,10.0,SSW,3.5,-,N/A,,Clear,210,2013-06-17 10:53:00
7:53 AM,66.9,60.1,79,29.94,10.0,SSW,6.9,-,N/A,,Clear,210,2013-06-17 11:53:00
8:53 AM,71.1,59.0,66,29.94,10.0,WSW,8.1,-,N/A,,Clear,240,2013-06-17 12:53:00
9:53 AM,73.9,57.9,57,29.94,10.0,WNW,8.1,-,N/A,,Clear,290,2013-06-17 13:53:00
10:53 AM,75.9,57.9,54,29.94,10.0,West,10.4,-,N/A,,Clear,280,2013-06-17 14:53:00
11:53 AM,79.0,59.0,50,29.94,10.0,WNW,8.1,-,N/A,,Clear,300,2013-06-17 15:53:00
12:53 PM,78.1,57.9,50,29.95,10.0,West,12.7,-,N/A,,Partly Cloudy,270,2013-06-17 16:53:00
1:53 PM,79.0,57.0,47,29.94,10.0,West,11.5,16.1,N/A,,Clear,280,2013-06-17 17:53:00
2:53 PM,79.0,61.0,54,29.94,10.0,NNW,8.1,-,N/A,,Partly Cloudy,330,2013-06-17 18:53:00
3:53 PM,81.0,62.1,52,29.93,10.0,Variable,5.8,-,N/A,,Clear,0,2013-06-17 19:53:00
4:53 PM,80.1,62.1,54,29.92,10.0,NW,5.8,-,N/A,,Partly Cloudy,310,2013-06-17 20:53:00
5:53 PM,79.0,60.1,52,29.91,10.0,WSW,10.4,-,N/A,,Clear,240,2013-06-17 21:53:00
6:53 PM,78.1,61.0,56,29.90,10.0,SW,5.8,-,N/A,,Clear,230,2013-06-17 22:53:00
7:53 PM,73.9,62.1,66,29.92,10.0,Calm,Calm,-,N/A,,Mostly Cloudy,0,2013-06-17 23:53:00
8:53 PM,64.9,57.9,78,29.96,10.0,North,11.5,19.6,0.00,,Mostly Cloudy,360,2013-06-18 00:53:00
9:53 PM,64.9,57.0,75,29.93,10.0,South,4.6,-,N/A,,Overcast,190,2013-06-18 01:53:00
10:53 PM,64.9,57.0,75,29.92,10.0,SSE,4.6,-,N/A,,Overcast,160,2013-06-18 02:53:00
11:53 PM,62.1,57.0,84,29.98,6.0,NNW,8.1,-,0.05,Rain,Rain,340,2013-06-18 03:53:00